Location: D�nning
(49.2479°N, 12.8491°E)
Time: 10:40:52
(UTC+00:00)

Daily predictions for brighter satellites

Satellite Brightness Start Highest point End
(mag) Time Altitude Azimuth Time Altitude Azimuth Time Altitude Azimuth
CENTAUR R/B 3.9 17:35:44 10° NW 17:42:45 39° NNE 17:50:37 10° E
SL-16 R/B 4.3 17:38:49 10° NW 17:43:43 31° WSW 17:48:36 10° SSW
ATLAS 5 CENTAUR R/B 2.2 17:41:22 10° NW 17:43:56 73° SW 17:50:49 10° SE
Cosmos 1707 3.8 17:42:03 10° NNE 17:45:19 26° ENE 17:48:33 10° SE
Cosmos 1743 3.2 17:43:43 10° SSW 17:47:32 65° WNW 17:51:21 10° N
ATLAS 3B R/B 4.2 17:42:47 10° NW 17:48:11 25° N 17:53:42 10° ENE
Iridium 4 Rocket 3.5 17:43:25 10° S 17:48:18 71° E 17:53:42 10° N
Sich 1 Rocket 4.4 17:45:47 10° SSE 17:49:45 32° E 17:53:46 10° NNE
SJ-6B 4.2 17:47:05 10° ESE 17:49:47 19° ENE 17:52:30 10° NNE
USA 238 DEB 4.4 17:44:05 10° NW 17:50:53 45° NNE 17:57:57 10° ESE
USA 238 4.4 17:44:12 10° NW 17:50:59 45° NNE 17:58:03 10° ESE
ATLAS CENTAUR R/B 3.5 17:50:29 10° W 17:53:41 24° NW 17:56:47 10° NNE
Cosmos 2263 Rocket 2.2 17:50:49 10° SSW 17:56:16 62° ESE 18:01:48 10° NE
Meteor 2-9 Rocket 4.3 17:53:29 10° S 17:59:17 68° E 18:05:03 10° NNE
USA 102 4.2 17:54:34 10° SSE 18:00:45 82° ENE 18:04:04 10° NNW
SL-08 RB Rocket 4.2 17:57:00 10° SE 18:01:17 40° ENE 18:05:34 10° N
Cosmos 1844 Rocket 4.0 18:00:39 10° SE 18:04:07 17° E 18:07:37 10° ENE
CZ-2C R/B 3.3 17:58:57 10° SSE 18:04:11 84° WSW 18:09:46 10° NNW
SJ 16-02 2.2 18:00:38 10° SW 18:04:56 55° WNW 18:09:16 10° NNE
Cosmos 990 Rocket 4.0 18:00:05 10° SSW 18:05:14 88° ESE 18:10:25 10° NNE
Cosmos 2227 4.2 18:00:07 10° SSW 18:05:51 77° ESE 18:11:35 10° NNE
Cosmos 1464 Rocket 4.4 18:00:41 10° SSE 18:06:20 41° E 18:12:02 10° NNE
ISS -2.1 18:04:30 10° S 18:06:48 17° SE 18:08:15 14° ESE
Abrixas rocket 2.0 18:06:20 10° WSW 18:09:08 56° SSE 18:11:14 16° E
Okean 2 Rocket 3.8 18:05:58 10° SSE 18:09:58 33° E 18:13:59 10° NNE
Cosmos 1943 3.5 18:04:21 10° NNW 18:10:00 74° WSW 18:15:39 10° SSE
SJ-11-01 4.4 18:05:48 10° SSE 18:10:30 86° WSW 18:15:16 10° NNW
NOSS 8 (F) 4.3 18:08:40 10° SW 18:11:51 73° NW 18:14:52 10° NE
Okean-O 4.4 18:08:48 10° SSW 18:12:52 36° W 18:17:00 10° NNW
Lacrosse 5 rocket 2.4 18:09:50 10° W 18:13:57 46° NNW 18:18:17 10° NE
Ariane Rocket 3.3 18:11:05 10° SE 18:15:57 49° ENE 18:20:51 10° N
Cosmos 1437 3.4 18:14:55 10° NNW 18:17:51 53° W 18:20:46 10° S
NOSS 3-2 (A) 4.2 18:12:14 10° NW 18:19:27 62° NE 18:26:32 15° ESE
Meteor 1-21 4.5 18:15:06 10° NNW 18:20:43 74° W 18:26:17 10° S
NOSS 2-2 (C) 3.6 18:17:45 10° S 18:21:00 36° ESE 18:24:35 10° NE
USA 116 3.9 18:18:49 10° N 18:22:09 64° WNW 18:25:49 10° SSW
Cosmos 1300 Rocket 3.9 18:19:05 10° SSE 18:23:13 42° E 18:27:24 10° NNE
SPOT 3 Rocket 4.4 18:22:58 16° ESE 18:26:18 31° ENE 18:30:48 10° N
MetOp-A 4.4 18:22:37 10° SE 18:27:46 50° ENE 18:32:56 10° N
YAOGAN 1 4.4 18:24:33 10° SSW 18:28:30 34° W 18:32:28 10° NNW
Cosmos 1898 Rocket 4.0 18:27:16 10° SW 18:32:23 64° WNW 18:37:34 10° NNE
Cosmos 1867 3.7 18:28:13 10° NW 18:33:43 79° SW 18:38:36 13° SSE
Cosmos 1891 Rocket 4.4 18:27:53 10° S 18:33:58 68° E 18:40:00 10° NNE
Cosmos 1536 Rocket 3.7 18:33:38 10° N 18:37:59 52° ENE 18:41:16 17° SSE
USA 234 3.8 18:35:23 10° ENE 18:41:19 35° SE 18:47:13 10° SSW
Cosmos 1626 3.9 18:41:08 10° NNE 18:43:18 17° ENE 18:43:18 17° ENE
Meteor 2-5 Rocket 4.4 18:40:20 10° N 18:45:30 36° ENE 18:48:05 24° ESE
DMSP B5D2-2 4.2 18:40:59 10° NNE 18:46:09 50° E 18:51:17 10° S
CREW DRAGON DEMO-1 DEB 3.3 18:43:56 10° WNW 18:46:55 51° N 18:47:59 32° ENE
CZ-4 R/B 4.4 18:48:04 10° SW 18:50:55 17° W 18:53:46 10° NW
Cosmos 2151 Rocket 3.6 18:46:43 10° S 18:51:04 60° E 18:55:30 10° NNE
USA 186 2.1 18:48:48 14° S 18:51:21 63° W 18:54:35 10° NNW
Cosmos 372 Rocket 3.9 18:46:14 10° SSW 18:51:27 73° ESE 18:56:41 10° NNE
Cosmos 1025 Rocket 3.0 18:47:37 10° N 18:52:01 88° W 18:56:08 12° S
NOSS 3-2 (C) 4.1 18:46:19 10° NW 18:53:34 64° NE 18:58:44 25° ESE
Cosmos 2150 Rocket 4.2 18:48:44 10° S 18:53:54 51° ESE 18:59:10 10° NNE
Nadezhda 4 Rocket 3.9 18:52:36 10° N 18:58:46 81° E 19:04:41 11° SSE
Cosmos 1805 4.1 19:00:43 31° ENE 19:00:43 31° ENE 19:03:37 10° NNE
OBJECT-B 0.7 19:01:23 56° ESE 19:01:48 64° ENE 19:05:02 10° N
Cosmos 1937 Rocket 4.4 18:57:03 10° SW 19:02:09 50° WNW 19:07:14 10° NNE
Cosmos 2082 Rocket 4.0 18:58:55 10° N 19:02:33 17° NE 19:04:43 14° ENE
Cosmos 2034 Rocket 3.9 18:56:47 10° S 19:03:07 76° E 19:09:29 10° NNE
MOS 1 Rocket 4.1 18:58:46 10° N 19:03:08 48° WNW 19:07:19 10° SW
Cosmos 1125 Rocket 3.8 18:59:55 10° S 19:04:53 42° ESE 19:09:54 10° NE
FREGAT/IRIS 3.0 19:05:32 43° SW 19:05:58 50° W 19:08:32 10° NNW
Exosat Rocket 3.9 19:01:00 10° S 19:06:14 41° ESE 19:10:56 10° NE
Cosmos 1674 2.6 19:04:58 10° N 19:08:49 70° ENE 19:09:42 49° SE
COSMOS 2406 4.2 19:05:35 10° NNW 19:10:39 32° NE 19:12:17 27° ENE
Meteor 1-24 Rocket 4.1 19:07:31 10° N 19:12:45 44° ENE 19:14:11 37° ESE
SL-14 R/B 4.3 19:13:17 10° N 19:16:10 31° NE 19:16:10 31° NE
ERS-1 Rocket 4.5 19:17:24 21° ENE 19:17:30 21° ENE 19:21:10 10° NNE
NOSS 2-2 (E) 3.8 19:14:48 10° WSW 19:18:17 55° NW 19:22:24 10° NE
Resurs 01 Rocket 1.6 19:19:16 51° ESE 19:20:05 61° ENE 19:24:31 10° N
H-2A R/B 4.2 19:16:56 10° SW 19:20:57 24° W 19:25:04 10° NW
ATLAS 2AS CENTAUR R/B 3.8 19:16:20 10° S 19:24:48 29° E 19:29:45 10° NE
CZ-2C R/B 2.9 19:18:07 10° N 19:23:39 75° WNW 19:29:13 10° SSW
SJ-6B 3.9 19:21:47 18° SSW 19:24:11 40° W 19:27:45 10° NNW
Lacrosse 4 Rocket 3.6 19:23:24 10° N 19:25:35 14° NNE 19:25:54 14° NE
Landsat 7 4.4 19:25:47 38° ENE 19:25:53 38° ENE 19:30:18 10° N
KORONAS-FOTON 3.9 19:22:31 10° NNW 19:26:28 78° W 19:27:14 55° S
NOSS 2-2 (D) 3.7 19:23:14 10° WSW 19:26:43 57° NW 19:30:47 10° NE
Cosmos 1048 Rocket 4.4 19:26:17 10° NNW 19:31:31 61° WSW 19:34:10 29° S
Cosmos 1766 4.1 19:33:40 39° NNE 19:33:40 39° NNE 19:36:20 10° NNE
SPOT 1/Viking Rocket 4.1 19:33:46 39° ENE 19:33:57 39° ENE 19:38:45 10° N
CENTAUR R/B 3.1 19:26:29 10° NW 19:34:30 88° NE 19:38:32 37° SE
Cosmos 1844 3.6 19:29:39 10° SSW 19:35:18 67° ESE 19:40:54 10° NNE
IGS 5A 4.2 19:37:09 39° NE 19:37:09 39° NE 19:40:21 10° N
Cosmos 1634 Rocket 3.9 19:34:24 38° SSE 19:36:44 63° E 19:42:52 10° NNE
ARIANE 5 R/B 2.8 19:37:43 52° NE 19:37:43 52° NE 19:41:38 10° N
SWAS 4.4 19:34:28 10° NNW 19:38:47 77° WSW 19:39:04 72° SSW
ATLAS 3B R/B 3.2 19:34:00 10° NW 19:40:33 47° NE 19:42:49 36° E
Cosmos 2263 Rocket 4.1 19:35:49 10° WSW 19:40:37 29° NW 19:45:28 10° NNE
Cosmos 1269 Rocket 4.0 19:35:32 10° NNW 19:40:51 66° ENE 19:41:30 60° ESE
Cosmos 2285 Rocket 3.9 19:35:17 10° SSW 19:41:33 72° ESE 19:47:53 10° NNE
MetOp-B 4.1 19:41:10 58° ESE 19:42:02 69° ENE 19:47:23 10° N
USA 238 DEB 4.1 19:35:07 10° NW 19:42:14 64° SW 19:45:38 34° SSE
USA 238 4.1 19:35:13 10° NW 19:42:21 65° SW 19:45:43 34° SSE
ISS -1.8 19:39:50 10° WSW 19:41:15 23° WSW 19:41:15 23° WSW
Abrixas rocket 4.4 19:41:30 10° W 19:42:31 20° W 19:42:31 20° W
Cosmos 1844 Rocket 2.6 19:41:40 10° SSW 19:47:15 85° WNW 19:52:54 10° NNE
Spot 2 Rocket 3.6 19:48:07 56° ENE 19:48:07 56° ENE 19:53:00 10° N
Okean 1 Rocket 3.3 19:51:22 56° SW 19:52:10 71° WNW 19:56:40 10° N
Lacrosse 5 rocket 3.1 19:50:02 10° WNW 19:53:56 30° N 19:55:14 26° NNE
Cosmos 1092 Rocket 4.3 19:51:03 10° NNW 19:57:08 63° W 20:00:15 30° SSW
Cosmos 2026 Rocket 4.2 19:58:21 10° NNW 20:04:41 72° W 20:06:55 42° SSW
CZ-2C R/B 4.0 20:00:31 10° N 20:04:55 61° WNW 20:05:30 55° WSW
Meteor 2-19 Rocket 4.4 19:59:21 10° N 20:05:28 65° ENE 20:05:39 65° E
SPOT 3 Rocket 4.5 20:03:38 31° SSW 20:05:33 43° W 20:10:29 10° NNW
Cosmos 1833 Rocket 2.9 20:02:19 10° NNW 20:07:46 55° NE 20:07:46 55° NE
Cosmos 2251 Rocket 4.4 20:08:27 10° NNW 20:12:49 39° NE 20:12:49 39° NE
Terra 3.2 20:19:13 30° NNE 20:19:13 30° NNE 20:22:02 10° N
Cosmos 1626 4.0 20:15:36 10° NNW 20:17:51 30° NW 20:17:51 30° NW
Cosmos 2279 Rocket 3.8 20:20:51 81° SE 20:21:03 83° E 20:27:21 10° N
Cosmos 2142 Rocket 4.4 20:21:19 67° SSW 20:22:15 85° W 20:28:32 10° N
USA 234 3.2 20:19:22 16° NE 20:24:46 86° NNW 20:31:21 10° WSW
SPOT 5 3.7 20:40:09 51° N 20:40:09 51° N 20:44:08 10° NNW
Cosmos 2082 Rocket 2.8 20:42:12 10° NNW 20:46:33 50° N 20:46:33 50° N
COSMOS 2406 3.9 20:49:43 10° NW 20:54:20 49° WNW 20:54:20 49° WNW
ERS-1 Rocket 4.0 20:57:23 43° NW 20:57:23 43° NW 21:00:52 10° NNW
Resurs 01 Rocket 4.0 20:56:51 17° W 20:56:59 17° W 20:59:55 10° NW
Cosmos 2098 Rocket 4.3 20:56:51 10° NNW 21:03:50 65° W 21:03:50 65° W
Lacrosse 4 Rocket 3.9 21:00:58 10° NNW 21:02:11 19° NNW 21:02:11 19° NNW
Cosmos 2266 Rocket 4.3 21:00:38 10° NNW 21:05:34 59° NW 21:05:34 59° NW
ATLAS 2AS CENTAUR R/B 3.0 21:11:59 62° WSW 21:13:29 80° NW 21:21:23 10° NE
Cosmos 2278 Rocket 3.9 21:22:33 26° NNE 21:22:33 26° NNE 21:24:56 10° NNE
CENTAUR R/B 4.3 21:17:52 10° NW 21:24:44 30° WSW 21:25:44 29° WSW
ATLAS 3B R/B 3.3 21:24:46 10° NW 21:30:03 48° W 21:30:03 48° W
Lacrosse 5 rocket 4.2 21:29:38 10° NW 21:30:50 17° NW 21:30:50 17° NW
Terra 4.3 21:58:06 18° NW 21:58:06 18° NW 21:59:38 10° NNW
USA 234 3.9 22:01:15 10° ENE 22:07:29 50° NNW 22:13:45 10° W
Cosmos 1943 Rocket 4.5 22:35:46 17° NE 22:35:46 17° NE 22:37:02 10° NNE
Cosmos 2369 Rocket 4.4 22:59:19 20° NE 22:59:19 20° NE 23:00:57 10° NNE
CZ-4C R/B 4.1 23:02:00 27° NNE 23:02:00 27° NNE 23:05:06 10° NE
Cosmos 2278 Rocket 4.4 23:04:22 20° NW 23:04:22 20° NW 23:08:22 10° N
ATLAS 2AS CENTAUR R/B 4.3 22:59:08 13° W 23:05:37 35° NNW 23:12:36 10° NE
Cosmos 2227 Rocket 4.2 23:38:34 10° N 23:42:58 22° NE 23:43:30 22° NE
USA 234 4.0 23:43:41 10° E 23:49:53 48° N 23:56:06 10° WNW
